Orbital Elements at Epoch 2459000.5 (2020-May-31.0) TDB
Reference: JPL 13 (heliocentric ecliptic J2000)
Element | Value | Uncertainty (1-sigma) | Units |
e | .223885530291537 | 1.2779e-07 | |
a | 3.019545261404682 | 3.7588e-08 | au |
q | 2.343512769315797 | 4.013e-07 | au |
i | 1.031548730782113 | 7.7586e-06 | deg |
node | 41.62173456305748 | 0.00070769 | deg |
peri | 331.2554868241667 | 0.0007092 | deg |
M | 15.25588106229359 | 4.632e-05 | deg |
tp | 2458919.283263191080 (2020-Mar-10.78326319) | 0.00024584 | TDB |
period | 1916.50846855879 5.25 | 3.5786e-05 9.798e-08 | d yr |
n | .1878415910526705 | 3.5074e-09 | deg/d |
Q | 3.695577753493567 | 4.6003e-08 | au |
|
| | Orbit Determination Parameters
Additional Information
|